Location: McFarlands Corners
(41.4117°N, 81.3382°W)
Time: 17:16:12
(UTC+00:00)

Explorer 7 - All Passes

Search period start: 16 February 2026 00:00
Search period end: 26 February 2026 00:00
Orbit: 431 x 545 km, 50.2° (Epoch: 16 February)

Date Brightness Start Highest point End Pass type
(mag) Time Alt. Az. Time Alt. Az. Time Alt. Az.
16 Feb - 00:07:00 10° NW 00:09:56 21° N 00:12:57 10° NE visible
16 Feb - 01:45:39 10° NW 01:49:11 33° NNE 01:52:49 10° E visible
16 Feb - 03:23:57 10° WNW 03:27:50 59° SW 03:31:49 10° SE night (unlit)
16 Feb - 20:23:12 10° SW 20:26:34 45° SE 20:30:04 10° ENE daylight
16 Feb - 22:01:45 10° W 22:05:05 34° NNW 22:08:32 10° NE daylight
16 Feb - 23:41:24 10° NW 23:44:18 21° N 23:47:16 10° NE visible
17 Feb - 01:20:04 10° NW 01:23:33 32° NNE 01:27:08 10° E visible
17 Feb - 02:58:20 10° WNW 03:02:12 62° SW 03:06:11 10° SE night (unlit)
17 Feb - 19:57:37 10° SSW 20:00:56 43° SE 20:04:23 10° ENE daylight
17 Feb - 21:36:06 10° W 21:39:25 35° NNW 21:42:52 10° NE daylight
17 Feb - 23:15:45 10° NW 23:18:37 21° N 23:21:34 10° NE daylight
18 Feb - 00:54:26 10° NW 00:57:52 31° NNE 01:01:25 10° E visible
18 Feb - 02:32:41 10° WNW 02:36:33 65° SW 02:40:31 10° SE visible
18 Feb - 19:32:00 10° SSW 19:35:17 40° SE 19:38:41 10° ENE daylight
18 Feb - 21:10:25 10° W 21:13:44 36° NNW 21:17:10 10° NE daylight
18 Feb - 22:50:05 10° NW 22:52:55 21° N 22:55:49 10° NE daylight
19 Feb - 00:28:47 10° NW 00:32:10 30° NNE 00:35:40 10° E visible
19 Feb - 02:07:01 10° WNW 02:10:51 68° SW 02:14:48 10° SE visible
19 Feb - 03:48:00 10° WSW 03:48:44 10° SW 03:49:29 10° SW night (unlit)
19 Feb - 19:06:21 10° SSW 19:09:35 38° SE 19:12:56 10° ENE daylight
19 Feb - 20:44:42 10° W 20:48:01 37° NNW 20:51:27 10° NE daylight
19 Feb - 22:24:22 10° NW 22:27:10 20° N 22:30:03 10° NE daylight
20 Feb - 00:03:05 10° NW 00:06:25 30° NNE 00:09:52 10° E visible
20 Feb - 01:41:18 10° WNW 01:45:07 71° SW 01:49:04 10° SE visible
20 Feb - 03:21:57 10° WSW 03:23:01 11° SW 03:24:06 10° SW night (unlit)
20 Feb - 18:40:40 10° SSW 18:43:51 36° SE 18:47:09 10° ENE daylight
20 Feb - 20:18:57 10° W 20:22:15 38° NNW 20:25:41 10° NE daylight
20 Feb - 21:58:37 10° NW 22:01:24 20° N 22:04:15 10° NE daylight
20 Feb - 23:37:21 10° NW 23:40:38 29° NNE 23:44:03 10° E visible
21 Feb - 01:15:33 10° WNW 01:19:21 74° SW 01:23:17 10° SE visible
21 Feb - 02:55:58 10° WSW 02:57:17 11° SW 02:58:36 10° SSW visible
21 Feb - 18:14:57 10° SSW 18:18:06 34° SE 18:21:20 10° ENE daylight
21 Feb - 19:53:09 10° W 19:56:28 39° NNW 19:59:53 10° NE daylight
21 Feb - 21:32:50 10° NW 21:35:35 20° N 21:38:25 10° NE daylight
21 Feb - 23:11:36 10° NW 23:14:50 28° NNE 23:18:11 10° ENE daylight
22 Feb - 00:49:46 10° WNW 00:53:33 77° SW 00:57:28 10° SE visible
22 Feb - 02:29:58 10° WSW 02:31:30 12° SW 02:33:01 10° SSW visible
22 Feb - 17:49:12 10° SSW 17:52:18 32° SE 17:55:29 10° ENE daylight
22 Feb - 19:27:20 10° W 19:30:39 40° NNW 19:34:03 10° NE daylight
22 Feb - 21:07:01 10° NW 21:09:44 20° N 21:12:33 10° NE daylight
22 Feb - 22:45:48 10° NW 22:49:00 27° NNE 22:52:17 10° ENE daylight
23 Feb - 00:23:58 10° WNW 00:27:43 81° SW 00:31:37 10° SE visible
23 Feb - 02:04:00 10° WSW 02:05:40 12° SW 02:07:23 10° SSW visible
23 Feb - 17:23:25 10° SSW 17:26:28 30° SE 17:29:35 10° ENE daylight
23 Feb - 19:01:29 10° W 19:04:47 41° NNW 19:08:11 10° NE daylight
23 Feb - 20:41:09 10° NW 20:43:52 20° N 20:46:39 10° NE daylight
23 Feb - 22:19:58 10° NW 22:23:06 26° NNE 22:26:21 10° ENE daylight
23 Feb - 23:58:07 10° WNW 00:01:51 84° SW 00:05:43 10° SE visible
24 Feb - 01:38:00 10° WSW 01:39:50 13° SW 01:41:41 10° SSW visible
24 Feb - 16:57:36 10° SSW 17:00:37 29° SE 17:03:40 10° ENE daylight
24 Feb - 18:35:34 10° W 18:38:54 42° NNW 18:42:18 10° NE daylight
24 Feb - 20:15:15 10° NW 20:17:57 20° N 20:20:43 10° NE daylight
24 Feb - 21:54:06 10° NW 21:57:12 26° NNE 22:00:23 10° ENE daylight
24 Feb - 23:32:15 10° WNW 23:35:57 88° SSW 23:39:48 10° SE visible
25 Feb - 01:11:59 10° W 01:13:56 14° SW 01:15:56 10° SSW visible
25 Feb - 16:31:46 10° SSW 16:34:43 27° SE 16:37:43 10° ENE daylight
25 Feb - 18:09:39 10° W 18:12:58 44° NNW 18:16:22 10° NE daylight
25 Feb - 19:49:19 10° NW 19:52:00 20° N 19:54:45 10° NE daylight
25 Feb - 21:28:12 10° NW 21:31:15 25° NNE 21:34:24 10° ENE daylight
25 Feb - 23:06:20 10° WNW 23:10:01 88° NNE 23:13:50 10° ESE daylight
